Santee, CA

9:47 PM PST on February 11, 2016 (GMT -0800)
Gillespie

Weather History for KSEE - January, 2013

Change the Weather History Date:

Thursday, January 17, 2013

  Actual Average Record
Temperature  
Mean Temperature 56 °F -  
Max Temperature 78 °F 70 °F 87 °F (2003)
Min Temperature 33 °F 40 °F 26 °F (1987)
Degree Days  
Heating Degree Days 10    
Growing Degree Days 6 (Base 50)    
Moisture  
Dew Point 31 °F    
Average Humidity 69    
Maximum Humidity 93    
Minimum Humidity 17    
Precipitation  
Precipitation 0.00 in - - ()
Sea Level Pressure  
Sea Level Pressure 30.13 in    
Wind  
Wind Speed 1 mph (WNW)    
Max Wind Speed 12 mph    
Max Gust Speed -    
Visibility 10 miles    
Events      
Averages and records for this station are not official NWS values.
T = Trace of Precipitation, MM = Missing Value Source: NWS Daily Summary

Daily Weather History Graph

Daily Weather History Graph

Search for Another Location

Airport or City:

Trip Planner

Search our weather history database for the weather conditions in past years. The results will help you decide how hot, cold, wet, or windy it might be!

Date:

Astronomy

Jan. 17, 2013 Rise Set
Actual Time 6:49 AM PST 5:06 PM PST
Civil Twilight 6:23 AM PST 5:33 PM PST
Nautical Twilight 5:53 AM PST 6:03 PM PST
Astronomical Twilight 5:23 AM PST 6:33 PM PST
Moon 10:23 AM PST (1/17) 11:36 PM PST (1/17)
Length of Visible Light 11h 09m
Length of Day
10h 16m
Waxing Crescent, 39% of the Moon is Illuminated
Jan 17
Waxing Crescent
Jan 18
First Quarter
Jan 26
Full
Feb 3
Last Quarter
Feb 9
New

Hourly Weather History & Observations

Time (PST) Temp. Windchill Dew Point Humidity Pressure Visibility Wind Dir Wind Speed Gust Speed Precip Events Conditions
12:15 AM 39.2 °F - 32.0 °F 75% 30.14 in 10.0 mi Calm Calm - N/A   Clear
12:35 AM 39.2 °F 37.0 °F 32.0 °F 75% 30.15 in 10.0 mi NW 3.5 mph - N/A   Clear
12:55 AM 37.4 °F - 32.0 °F 81% 30.15 in 10.0 mi Calm Calm - N/A   Clear
1:15 AM 37.4 °F - 32.0 °F 81% 30.15 in 10.0 mi Calm Calm - N/A   Clear
1:35 AM 37.4 °F - 32.0 °F 81% 30.15 in 10.0 mi Calm Calm - N/A   Clear
1:55 AM 37.4 °F - 32.0 °F 81% 30.15 in 10.0 mi Calm Calm - N/A   Clear
2:15 AM 37.4 °F - 32.0 °F 81% 30.15 in 10.0 mi Calm Calm - N/A   Clear
2:35 AM 35.6 °F - 32.0 °F 87% 30.14 in 10.0 mi Calm Calm - N/A   Clear
2:55 AM 35.6 °F - 32.0 °F 87% 30.14 in 10.0 mi Calm Calm - N/A   Clear
3:15 AM 35.6 °F - 32.0 °F 87% 30.14 in 10.0 mi Calm Calm - N/A   Clear
3:35 AM 35.6 °F 32.8 °F 32.0 °F 87% 30.14 in 10.0 mi North 3.5 mph - N/A   Clear
3:55 AM 35.6 °F - 32.0 °F 87% 30.14 in 10.0 mi Calm Calm - N/A   Clear
4:15 AM 35.6 °F - 32.0 °F 87% 30.15 in 10.0 mi Calm Calm - N/A   Clear
4:35 AM 35.6 °F - 32.0 °F 87% 30.14 in 10.0 mi Calm Calm - N/A   Clear
4:55 AM 35.6 °F - 32.0 °F 87% 30.14 in 10.0 mi Calm Calm - N/A   Clear
5:15 AM 33.8 °F - 32.0 °F 93% 30.14 in 10.0 mi Calm Calm - N/A   Clear
6:47 AM 33.8 °F - 32.0 °F 93% 30.16 in 7.0 mi Calm Calm - N/A   Clear
2:50 PM 78.8 °F - 30.2 °F 17% 30.06 in 25.0 mi West 8.1 mph - N/A   Clear
3:47 PM 75.2 °F - 28.4 °F 18% 30.07 in 25.0 mi WNW 11.5 mph - N/A   Clear
4:47 PM 68.0 °F - 32.0 °F 26% 30.09 in 25.0 mi West 5.8 mph - N/A   Clear
8:55 PM 48.2 °F - 32.0 °F 54% 30.13 in 10.0 mi NW 3.5 mph - N/A   Clear
9:15 PM 48.2 °F - 32.0 °F 54% 30.14 in 10.0 mi West 3.5 mph - N/A   Clear
9:35 PM 46.4 °F - 30.2 °F 53% 30.14 in 10.0 mi Calm Calm - N/A   Clear
9:55 PM 46.4 °F - 32.0 °F 57% 30.14 in 10.0 mi Calm Calm - N/A   Clear
10:15 PM 46.4 °F - 30.2 °F 53% 30.13 in 10.0 mi Calm Calm - N/A   Clear
10:35 PM 46.4 °F - 30.2 °F 53% 30.13 in 10.0 mi Calm Calm - N/A   Clear
10:55 PM 44.6 °F 43.1 °F 30.2 °F 57% 30.13 in 10.0 mi WNW 3.5 mph - N/A   Clear
11:15 PM 42.8 °F - 30.2 °F 61% 30.14 in 10.0 mi Calm Calm - N/A   Clear
11:35 PM 42.8 °F - 30.2 °F 61% 30.14 in 10.0 mi Calm Calm - N/A   Clear
11:55 PM 42.8 °F - 28.4 °F 57% 30.14 in 10.0 mi Calm Calm - N/A   Clear